Starlink 31686

operational
NORAD ID: 59579 Int'l Des: 2024-076 Owner: SPXS Country: US Constellation: starlink
LEOCIRCULAR

Über Starlink 31686

Beschreibung wird geladen...

Live-Position

3D-Globus wird geladen...

Nächste Überflüge

Höhenverlauf

Altitude vs Time

uPlot chart will show altitude changes over time

Zweizeiliger Elementsatz

1 59579U 24076R 25260.07155367 -.00001886 00000-0 -59064-4 0 9996
2 59579 43.0032 269.1860 0000537 292.9943 67.0852 15.27572324 79950
Epoch: 17. Sept. 2025 • Age: 23 hours

Aktueller Status

Höhe 492.1 km
Geschwindigkeit 7.62 km/s
Subsatellitenpunkt -32.82°S, 119.54°E
Startdatum 23. Apr. 2024
Alter 1.4 years
Typ internet

Technische Details

Klassifizierung Payload
Masse 730.00 kg
Trockenmasse 700.00 kg
Gesamtmasse 730.00 kg
Länge 0.30 m
Durchmesser 4.10 m
Spannweite 29.00 m
Form Box + pan
Hersteller SPXS
Bus-Typ Starlink V2M
Phasenstatus In Orbit
Besitzer/Staat SPXS/US

Große Konstellationen

Loading constellations...